Regional Weather Roundup
Issued by NWS

Home | Current Version | Previous Version | Text Only | Print | Product List | Glossary On
Versions: 1 2 3 4 5 6 7 8 9 10 11 12 13 14 15 16 17 18 19 20 21 22 23 24 25 26 27 28 29 30 31 32 33 34 35 36 37 38 39 40 41 42 43 44 45 46 47 48 49 50
000
ASUS44 KJAN 310703
RWRMS

MISSISSIPPI HOURLY WEATHER ROUNDUP
NATIONAL WEATHER SERVICE JACKSON MS
200 AM CDT MON AUG 31 2015

NOTE: "FAIR: INDICATES FEW OR NO CLOUDS BELOW 12,000 FEET WITH NO
SIGNIFICANT WEATHER AND/OR OBSTRUCTIONS TO VISIBILITY.

MSZ001>002-007>008-010>013-018>021-025>028-034>036-310800-
NORTHWEST MISSISSIPPI

CITY           SKY/WX    TMP DP  RH WIND       PRES   REMARKS
CLARKSDALE     FAIR      72  72 100 E5        30.02S
CLEVELAND      FAIR      75  72  90 SE6       30.00S
GREENWOOD      CLEAR     74  67  78 SE5       30.01S
GREENVILLE     CLEAR     73  69  87 SE6       29.99S
OLIVE BRANCH   CLEAR     70  70 100 SE6       30.04F
OXFORD         FAIR      68  66  94 SE8       30.07S
TUNICA         SUNNY     70  68  94 SE5       30.03S
$$

MSZ003>006-009-014>017-022>024-029>033-037>039-310800-
NORTHEAST MISSISSIPPI

CITY           SKY/WX    TMP DP  RH WIND       PRES   REMARKS
COLUMBUS AFB   CLEAR     66  65  96 CALM      30.04F
CORINTH        FAIR      68  64  88 S5        30.05S
GOLDN TRIANGLE CLEAR     68  63  83 CALM      30.04F
STARKVILLE     FAIR      68  64  88 CALM      30.04F
TUPELO         CLEAR     70  66  87 CALM      30.05F
$$

MSZ040-058-310800-
CENTRAL MISSISSIPPI

CITY           SKY/WX    TMP DP  RH WIND       PRES   REMARKS
JACKSON INTL   CLEAR     76  68  76 SE7       30.01F
JACKSON HAWKNS CLEAR     76  69  79 SE6       30.02S
MERIDIAN KEY   CLEAR     71  68  90 SE3       30.04S
MERIDIAN NAS   CLEAR     69  67  93 CALM      30.04S
VICKSBURG      PTCLDY    70  66  87 CALM      30.00S
$$

MSZ059>079-310800-
SOUTH MISSISSIPPI

CITY           SKY/WX    TMP DP  RH WIND       PRES   REMARKS
BROOKHAVEN       N/A     68  66  94 CALM      30.04S
HATTIESBURG    CLEAR     71  67  87 CALM      30.04S
MCCOMB         PTCLDY    68  65  90 CALM      30.02F
NATCHEZ        PTCLDY    72  64  78 S3        30.02S
PINE BELT      CLEAR     70  64  83 SE3       30.04F
$$

MSZ080>082-310800-
COASTAL MISSISSIPPI

CITY           SKY/WX    TMP DP  RH WIND       PRES   REMARKS
BILOXI         PTCLDY    77  75  94 N2        30.01F
PASCAGOULA     MOCLDY    70  69  97 CALM      30.02F
GULFPORT       CLEAR     72  69  90 CALM      30.01F
$$



USA.gov is the U.S. government's official web portal to all federal, state and local government web resources and services.